Regional Weather Roundup
Issued by NWS

Home | Current Version | Previous Version | Text Only | Print | Product List | Glossary Off
Versions: 1 2 3 4 5 6 7 8 9 10 11 12 13 14 15 16 17 18 19 20 21 22 23 24 25 26 27 28 29 30 31 32 33 34 35 36 37 38 39 40 41 42 43 44 45 46 47 48 49 50

000
ASUS43 KMPX 271301
RWRMN
WEATHER ROUNDUP FOR MINNESOTA
NATIONAL WEATHER SERVICE TWIN CITIES/CHANHASSEN MN
700 AM CST FRI FEB 27 2015


NOTE: "FAIR" INDICATES FEW OR NO CLOUDS BELOW 12,000 FEET WITH NO
SIGNIFICANT WEATHER AND/OR OBSTRUCTIONS TO VISIBILITY. N/A MEANS
CURRENT SKY AND/OR WEATHER CONDITIONS ARE NOT AVAILABLE.

MNZ060>063-068>070-271400-
   Twin Cities Metro

CITY           SKY/WX    TMP DP  RH WIND       PRES   REMARKS
TWIN CITIES    CLEAR     -5 -11  75 SW6       30.54R WCI -18
ST PAUL        CLEAR     -3  -9  75 CALM      30.56R
CRYSTAL        CLEAR     -3  -9  75 W6        30.52S WCI -15
BLAINE         CLEAR     -2  -6  84 W7        30.51S WCI -16
LAKEVILLE      CLEAR    -11 -17  77 SW3       30.53S
EDEN PRAIRIE   CLEAR    -10 -15  78 SW5       30.53R WCI -22
SOUTH ST PAUL  CLEAR     -4  -9  77 CALM      30.54S
LAKE ELMO      FAIR      -9 -15  77 CALM      30.53R
$$
MNZ001>005-007-008-013>017-022>024-027-028-271400-
   Northwest Minnesota

CITY           SKY/WX    TMP DP  RH WIND       PRES   REMARKS
BEMIDJI        PTCLDY   -12 -16  82 SW3       30.39S
HALLOCK        MOCLDY   -17 -22  76 S8        30.40F WCI -34
ROSEAU         PTCLDY    -9 -17  70 SW8       30.38S WCI -26
WARROAD        MOCLDY    -9 -15  77 SW7       30.36F WCI -24
THIEF RVR FALL PTCLDY   -15 -29  48 SW5       30.40S WCI -27
CROOKSTON      MOCLDY   -15 -20  76 S6        30.46S WCI -29
FOSSTON        FAIR     -18 -24  76 S7        30.42S WCI -35
DETROIT LAKES  PTCLDY   -11 -15  84 S3        30.44S
MOORHEAD       FAIR      -9 -13  84 S3        30.49S
PARK RAPIDS    PTCLDY   -15 -23  67 SW3       30.41R
MAHNOMEN       FAIR     -13 -18  79 S8        30.43S WCI -30
$$
MNZ006-009>011-018-025>026-271400-
   North Central Minnesota

CITY           SKY/WX    TMP DP  RH WIND       PRES   REMARKS
BAUDETTE       MOCLDY   -15 -21  74 S7        30.35S WCI -31
FLAG ISLAND    MOCLDY   -13 -18  77 SW3       30.34S
INTL FALLS     MOCLDY   -20 -26  74 SW3       30.36S
WASKISH        MOCLDY   -17 -20  83 CALM      30.38F
BIG FORK       MOCLDY   -24 -31  69 CALM      30.37S
LONGVILLE      MOCLDY   -24 -29  76 CALM      30.41F
GRAND RAPIDS   PTCLDY   -13 -20  70 CALM      30.37S
CRANE LAKE     PTCLDY   -27 -35  68 CALM      30.39S
ORR            MOCLDY   -17 -24  70 CALM      30.33S
COOK           PTCLDY   -26 -33  68 CALM      30.37S
WALKER         FAIR     -16 -22  77 W3        30.40S
$$
MNZ012-019>021-037-271400-
   Northeast Minnesota

CITY           SKY/WX    TMP DP  RH WIND       PRES   REMARKS
DULUTH         CLEAR    -10 -16  74 NW7       30.37S WCI -25
ELY            MOCLDY   -18 -24  76 CALM      30.35R
HIBBING        MOCLDY   -23 -29  73 CALM      30.38S
EVELETH        PTCLDY   -18 -26  69 CALM      30.38S
DULUTH HARBOR  CLEAR     -8 -15  71 CALM      30.49S
TWO HARBORS    PTCLDY    -8 -15  71 NW5       30.38R WCI -19
SILVER BAY     PTCLDY   -11 -17  77 CALM      30.37S
GRAND MARAIS     N/A     -1 -13  56 CALM      30.40S
G MARAIS ARPRT PTCLDY   -15 -22  70 CALM      30.26S
$$
MNZ029>031-032-039>041-046>048-054>057-064-271400-
   West Central Minnesota

CITY           SKY/WX    TMP DP  RH WIND       PRES   REMARKS
FERGUS FALLS   CLEAR    -11 -17  77 SW3       30.53S
WHEATON        CLEAR     -9 -15  77 SW3       30.53S
MORRIS         CLEAR    -11 -17  77 W3        30.49F
ALEXANDRIA     PTCLDY    -7 -18  59 W7        30.45S WCI -21
ELBOW LAKE     FAIR     -13 -17  81 CALM      30.48S
WADENA         PTCLDY   -15 -18  84 CALM      30.44S
GLENWOOD       PTCLDY   -13 -18  77 SW6       30.47F WCI -27
APPLETON       CLEAR    -11 -17  77 SW3       30.53F
BENSON         CLEAR    -11 -18  70 CALM      30.51S
ORTONVILLE       N/A     -9 -15  77 SW5       30.51S WCI -21
MADISON        CLEAR     -9 -15  77 CALM      30.53S
WILLMAR        FAIR     -11 -18  70 W3        30.52R
$$
MNZ033>034-036-042>043-049>051-058-059-271400-
   Central Minnesota

CITY           SKY/WX    TMP DP  RH WIND       PRES   REMARKS
ST CLOUD       CLEAR     -8 -13  78 SW3       30.50S
SAUK CENTRE    FAIR     -10 -14  81 CALM      30.48S
PAYNESVILLE    CLEAR    -14 -18  82 SW5       30.50S WCI -26
AITKIN         PTCLDY    -8 -15  71 CALM      30.42S
PINE RIVER     PTCLDY   -18 -24  76 CALM      30.45S
BRAINERD       PTCLDY   -17 -21  82 CALM      30.45S
STAPLES        PTCLDY   -11 -17  77 CALM      30.44S
LONG PRAIRIE   FAIR      -9 -15  77 CALM      30.46S
LITTLE FALLS   CLEAR    -13 -18  77 CALM      30.48F
LITCHFIELD     CLEAR     -9 -15  77 CALM      30.51S
MAPLE LAKE     CLEAR     -5  -8  84 W6        30.52S WCI -17
$$
MNZ037-044-045-052-053-271400-
   East Central Minnesota

CITY           SKY/WX    TMP DP  RH WIND       PRES   REMARKS
PRINCETON      CLEAR    -11 -17  77 CALM      30.49S
MORA           PTCLDY   -15 -22  70 CALM      30.50R
CAMBRIDGE      PTCLDY    -8 -15  71 CALM        N/A
RUSH CITY      PTCLDY    -9 -13  81 W3        30.51R
MOOSE LAKE     PTCLDY   -13 -18  77 CALM      30.44R
HINCKLEY       FAIR     -11 -15  84 CALM      30.47S
CLOQUET        PTCLDY   -11 -17  77 W6        30.40S WCI -25
MCGREGOR       PTCLDY    -9 -13  84 CALM      30.43S
$$
MNZ071>073-080-081-089-090-097-098-271400-
   Southwest Minnesota

CITY           SKY/WX    TMP DP  RH WIND       PRES   REMARKS
MONTEVIDEO     PTCLDY    -9 -15  77 NW5       30.54S WCI -21
GRANITE FALLS  PTCLDY   -14 -19  77 SW5       30.55S WCI -26
CANBY          CLEAR     -8 -13  78 W3        30.53S
MARSHALL       CLEAR     -9 -15  77 W6        30.53R WCI -23
REDWOOD FALLS  CLEAR     -9 -14  78 SW6       30.55R WCI -22
OLIVIA         PTCLDY   -11 -17  77 W3        30.53S
PIPESTONE      FAIR     -15 -20  76 SW3       30.48R
WINDOM         CLEAR    -13 -18  77 CALM      30.50S
WORTHINGTON    PTCLDY    19 -20  16 SW6       30.50F WCI  11
JACKSON        PTCLDY    -9 -17  70 W6        30.50F WCI -23
TRACY          CLEAR     -8 -14  76 SW6       30.51S WCI -22
SLAYTON        PTCLDY    -9 -15  77 CALM      30.49R
$$
MNZ065>067-074>077-082>085-091>093-271400-
   South Central Minnesota

CITY           SKY/WX    TMP DP  RH WIND       PRES   REMARKS
MANKATO        PTCLDY    -9 -18  64 CALM      30.53S
NEW ULM        PTCLDY   -17 -24  70 W6        30.55R WCI -31
FAIRMONT       FAIR     -11 -17  77 W6        30.51S WCI -25
GLENCOE        CLEAR     -9 -13  82 W5        30.52S WCI -20
FARIBAULT      PTCLDY   -17 -20  83 CALM      30.53R
OWATONNA       MOCLDY   -15 -20  76 CALM      30.52R
WASECA         MOCLDY   -17 -22  76 CALM      30.54S
ALBERT LEA       N/A    -13 -17  84 W3        30.51S
$$
MNZ078>079-086>088-094>096-271400-
   Southeast Minnesota

CITY           SKY/WX    TMP DP  RH WIND       PRES   REMARKS
ROCHESTER      PTCLDY   -14 -19  79 W10       30.49R WCI -34
RED WING       CLEAR    -15 -20  76 CALM      30.54S
STANTON        CLEAR    -12 -17  76 S5        30.53R WCI -23
DODGE CENTER   PTCLDY   -17 -22  76 W9        30.48R WCI -36
WINONA         PTCLDY    -9 -15  77 CALM      30.57S
AUSTIN         LGT SNOW -15 -20  76 CALM      30.51S
PRESTON        MOCLDY   -12 -16  79 W6        30.50S WCI -26
$$
ABBREVIATIONS USED IN REMARKS
   TC - TEMPERATURES IN CELSIUS
  WCI - WIND CHILL INDEX
   HX - HEAT INDEX
  VSB - VISIBILITY
$$


USA.gov is the U.S. government's official web portal to all federal, state and local government web resources and services.